Temp
57 56 56 55 55 55 55 55 53 54 54 55 55 55 55 55 55 55 56 56 56 56 56 56 56 57 57 57 57 56 56 56 56 55 55 56 56 56 56 56 56 55 56 56 56 56 56 56 56 56 56 55 56 56 56 55 56 56 57 57 57 57 57 57 57 57 58 58 58
56 55 54 52 52 53 54 54 53 54 54 55 55 55 55 55 55 56 56 56 56 56 56 56 56 56 56 56 56 56 56 56 56 55 55 56 55 55 55 55 55 54 54 54 55 55 55 56 55 55 55 55 55 55 55 55 55 55 56 56 56 56 57 56 57 57 57 57 58
55 54 54 54 54 55 55 55 55 55 56 56 56 56 56 56 56 56 56 56 56 56 56 56 55 55 55 55 55 55 55 55 55 55 55 55 55 55 55 55 55 54 53 54 54 54 54 54 54 53 53 54 54 54 55 56 56 56 56 56 56 56 56 56 57 57 57 57 57
54 54 54 55 55 55 55 55 55 55 55 55 55 55 55 55 55 55 55 56 55 55 55 55 54 54 53 53 54 54 54 54 54 54 54 54 55 55 55 54 54 54 54 54 53 53 53 54 53 53 53 53 54 54 54 55 56 56 55 56 56 56 56 56 56 57 57 57 57
53 53 54 54 55 54 54 54 54 54 54 54 54 54 54 54 54 54 54 54 54 55 55 55 53 52 52 52 53 53 54 54 52 53 54 54 54 54 54 54 54 54 53 53 52 52 52 53 52 52 52 53 53 53 54 55 55 55 55 55 56 56 56 56 56 56 56 56 56
52 53 53 53 53 53 53 53 53 53 53 53 53 53 54 54 54 54 54 54 54 54 54 53 52 51 51 52 53 53 53 53 53 53 52 52 52 52 53 53 52 52 52 52 51 51 50 51 51 51 52 52 52 53 54 54 54 54 54 54 55 55 55 56 56 56 56 56 56
54 53 53 52 52 53 53 53 52 53 53 53 53 53 53 53 53 53 53 53 54 53 53 52 51 51 51 52 52 52 52 52 52 52 51 51 51 51 51 51 51 51 51 51 51 51 50 50 50 50 50 50 51 52 52 53 53 53 52 53 54 54 54 54 55 55 55 55 55
55 54 54 54 53 52 52 52 52 53 53 53 52 52 52 53 53 52 52 53 53 53 52 52 52 52 52 51 50 50 50 51 50 50 51 51 51 51 50 50 50 50 50 51 51 51 50 50 50 50 50 50 51 51 52 51 51 51 51 51 53 53 53 52 52 53 54 54 53
54 54 54 53 53 52 52 52 52 52 52 52 52 52 52 52 51 51 51 51 52 52 52 52 51 51 51 50 49 49 49 48 49 49 49 50 49 49 50 50 50 50 50 50 51 50 50 50 50 50 50 50 50 50 50 50 49 48 49 50 51 52 52 52 52 53 53 53 52
54 54 53 53 53 53 52 52 52 52 52 52 52 52 52 50 50 51 51 51 51 51 51 51 50 50 49 49 48 48 48 48 48 48 48 48 48 48 48 49 49 49 50 50 50 50 50 50 50 49 50 50 50 49 49 48 48 47 47 49 49 50 51 51 52 53 53 52 51
54 53 53 53 53 53 52 52 52 52 52 53 52 52 52 51 51 51 51 51 50 50 50 50 50 49 48 48 48 48 48 48 48 48 49 49 49 49 49 49 49 49 49 49 50 49 49 49 49 48 48 49 49 49 48 48 47 47 47 48 48 49 49 50 51 52 52 52 51
53 53 53 53 53 52 52 52 52 52 52 53 52 52 52 52 52 52 51 51 51 51 50 50 50 49 49 48 48 48 48 49 49 49 49 49 49 49 49 49 49 49 49 48 48 48 48 47 47 47 47 48 48 48 47 48 47 47 47 47 48 48 48 48 50 50 51 52 51
53 53 53 52 52 52 52 52 52 52 52 52 52 52 52 52 52 52 51 51 51 51 50 50 50 49 49 49 49 49 49 49 49 49 48 48 48 48 48 48 48 48 48 47 47 47 47 47 46 46 46 47 47 47 47 47 47 47 47 47 47 47 47 48 48 49 50 51 50
52 52 52 52 52 52 52 52 52 52 52 52 52 52 52 52 52 52 51 51 50 50 50 50 50 49 49 49 49 49 49 49 48 48 48 47 47 47 47 47 47 47 47 46 46 46 46 46 46 46 46 46 46 46 46 46 46 46 46 46 46 46 47 47 48 48 48 49 49
52 52 52 52 51 51 51 52 52 52 52 52 52 52 52 52 52 51 50 50 50 49 49 49 49 49 49 48 48 48 48 48 48 47 47 47 47 47 47 46 47 47 46 46 46 46 46 46 46 46 45 45 45 45 45 45 45 45 45 45 45 46 46 47 47 47 47 47 47
51 51 52 52 51 51 51 52 52 52 52 52 52 52 51 51 51 50 49 48 48 48 48 48 48 48 48 48 47 47 47 47 47 47 47 47 46 46 46 46 46 47 47 46 46 45 45 45 45 45 45 45 45 45 45 45 45 45 45 45 45 45 45 45 45 46 46 46 46
51 52 52 52 52 51 51 51 52 52 51 51 51 51 51 51 50 49 48 47 47 47 47 47 47 47 47 47 47 47 47 46 46 46 46 46 46 46 46 46 46 47 46 46 45 45 45 45 45 45 45 44 44 44 44 44 44 44 44 44 43 43 43 44 44 44 44 45 45
52 52 52 52 51 51 51 51 51 51 51 50 50 50 50 50 49 49 48 47 47 46 46 45 46 46 46 46 46 46 46 46 46 46 46 46 46 46 46 46 46 46 46 46 45 45 45 45 45 44 44 44 43 43 43 43 42 42 42 42 42 42 42 42 43 43 43 43 43
52 52 52 52 51 51 51 50 50 50 50 50 50 50 49 49 48 48 47 47 46 46 45 45 45 45 45 45 45 45 45 45 45 45 45 46 46 46 46 46 46 46 46 45 45 45 44 44 44 44 43 43 42 42 41 41 40 40 40 40 40 40 40 41 41 42 42 42 42
52 52 52 52 51 51 50 50 50 50 49 49 49 49 48 48 47 47 47 46 46 46 45 45 45 44 45 45 44 44 44 44 44 44 45 45 45 45 45 45 45 45 45 45 44 44 44 44 43 43 42 41 40 40 39 39 38 38 38 38 38 39 39 40 40 40 41 41 41
52 52 52 51 51 51 50 50 50 49 49 49 48 48 47 47 47 46 46 46 46 46 45 45 44 44 44 44 44 44 44 44 44 44 44 44 44 44 45 44 44 44 44 44 44 44 44 43 42 41 40 40 39 38 38 38 37 37 37 37 38 38 38 39 39 39 40 40 40
52 52 52 51 51 50 50 50 49 49 48 48 47 47 47 46 46 46 46 46 46 45 45 45 45 44 44 44 44 44 44 44 44 43 43 43 43 44 44 44 44 44 44 43 43 43 43 42 41 40 39 38 38 37 37 37 37 37 37 37 38 38 38 38 39 39 39 39 39
51 51 51 51 50 50 49 49 49 48 48 47 47 47 46 46 46 46 46 46 45 45 45 44 44 44 44 44 43 43 43 43 43 43 43 43 43 43 43 44 43 43 43 43 43 42 41 40 39 38 38 37 37 36 36 36 36 36 36 37 37 38 38 38 38 38 38 38 39
51 51 50 50 50 49 49 49 48 48 48 47 47 47 46 45 45 45 45 45 44 43 43 43 43 43 43 43 43 43 42 42 42 42 42 43 43 43 43 43 43 43 43 43 42 41 39 38 37 37 37 36 36 36 36 36 36 36 36 36 37 37 37 38 38 38 39 39 39
50 50 49 49 49 49 48 48 48 48 48 48 48 47 46 45 45 44 44 43 43 42 42 42 42 42 42 42 42 42 42 42 41 41 41 42 42 42 43 43 43 43 43 42 40 38 37 36 36 36 36 36 35 35 35 35 35 35 35 35 35 36 36 37 38 38 39 39 39
49 49 49 48 48 48 48 48 47 47 48 48 48 47 47 46 45 44 43 42 42 42 42 41 41 41 41 41 41 41 42 42 42 42 41 41 41 42 42 42 42 42 41 40 38 37 36 35 35 35 35 35 35 35 34 35 34 34 34 35 35 35 35 36 36 38 38 39 39
48 48 48 48 48 47 47 47 47 47 47 47 47 47 47 46 45 44 43 42 42 42 41 41 41 40 40 41 41 41 41 42 42 42 41 41 41 41 41 42 41 41 39 38 37 36 35 35 35 34 34 34 34 34 34 34 34 34 34 34 34 35 35 35 36 36 37 38 39
48 47 47 47 47 47 47 47 47 47 47 47 47 46 46 46 45 44 43 42 42 41 41 41 41 42 42 43 42 41 41 41 41 41 41 41 41 41 41 42 41 40 38 37 36 36 35 35 35 34 34 34 34 33 33 33 34 34 34 34 35 35 35 35 36 36 37 38 38
47 47 47 46 46 46 46 46 46 46 46 46 46 46 45 44 44 43 43 42 42 42 42 43 42 43 43 43 42 41 41 41 41 41 41 40 40 41 41 41 40 38 37 36 36 35 35 35 35 34 34 34 34 33 33 33 34 34 34 35 35 36 35 35 36 36 37 37 38
47 47 46 45 45 45 45 46 46 46 46 46 45 45 44 43 43 43 42 42 42 43 43 43 43 42 42 42 41 41 41 42 41 41 40 39 40 40 40 39 38 37 36 36 35 35 35 35 35 34 34 34 33 33 33 33 34 34 34 35 36 36 36 36 36 36 37 37 37
47 46 46 45 45 45 45 45 45 45 45 45 44 44 43 43 42 42 43 43 43 43 43 43 43 42 42 42 42 42 42 42 42 41 40 39 39 38 38 38 37 36 36 35 35 35 35 35 35 34 34 34 33 33 33 33 34 34 34 35 36 36 36 36 36 36 36 36 37
47 46 45 45 44 45 45 45 45 45 44 44 43 43 42 42 43 43 43 43 43 43 43 43 42 42 42 43 43 43 42 42 41 41 40 40 38 37 36 36 36 36 35 35 35 35 35 35 34 34 34 34 33 33 33 33 34 34 34 35 36 36 36 36 36 36 37 37 37
46 45 45 44 44 44 44 44 44 44 43 43 42 42 42 42 43 43 43 43 43 43 43 42 41 41 41 42 42 41 41 40 40 39 39 38 37 36 35 35 35 35 35 35 35 34 34 34 34 34 34 34 33 33 33 33 33 34 34 35 35 36 36 36 36 36 37 37 37
45 45 45 44 44 44 43 43 43 43 42 42 41 41 41 41 41 41 42 42 42 43 43 42 42 41 41 41 41 40 39 38 38 38 37 37 36 35 35 34 35 35 35 34 34 34 34 34 34 34 34 34 33 33 33 33 33 34 34 34 35 36 36 37 37 37 37 37 37
45 44 44 44 43 43 43 43 43 42 41 41 40 40 40 41 41 41 42 42 42 42 42 42 42 42 41 41 41 40 39 37 37 36 35 35 35 34 34 34 35 35 35 35 35 35 35 35 35 34 34 33 33 33 33 34 33 34 34 35 35 36 36 36 36 37 37 37 37
45 43 42 41 42 42 42 42 42 41 41 39 38 39 40 41 42 42 42 42 41 41 41 41 41 41 41 40 39 39 38 37 36 35 34 34 33 33 33 34 35 36 35 35 35 35 35 35 34 34 34 33 33 33 33 34 34 34 35 35 35 36 36 36 36 37 37 37 37
45 43 42 41 42 42 42 42 41 41 40 38 38 39 40 41 41 42 42 41 41 41 40 40 40 40 40 39 38 38 38 37 35 34 33 33 33 33 33 34 35 36 35 35 35 35 35 35 34 34 34 33 33 33 33 34 34 34 35 35 35 36 37 37 37 37 37 37 37
45 44 43 42 42 42 42 41 40 40 39 39 40 40 41 41 41 41 41 40 40 40 39 39 39 39 39 38 38 37 36 36 35 34 33 32 32 33 33 33 35 35 35 35 35 35 35 35 34 34 34 33 33 33 33 33 33 34 34 35 35 36 37 37 37 37 37 37 37
46 45 44 43 42 42 41 40 40 39 39 40 40 41 41 41 41 41 41 40 40 39 39 39 39 38 38 37 36 35 35 35 35 34 33 32 33 33 33 33 34 35 35 35 35 35 35 35 34 34 34 33 33 33 33 33 33 34 34 35 35 36 37 37 37 37 38 38 37
45 45 44 43 42 41 40 40 40 40 40 40 40 40 40 40 40 40 40 40 40 39 39 38 38 38 37 36 35 34 34 34 34 34 33 33 33 33 33 33 34 35 35 35 35 35 35 35 35 35 34 34 34 33 33 33 33 34 34 35 35 36 36 37 37 38 38 38 38
45 44 44 43 42 41 40 40 40 40 40 40 40 40 40 40 40 40 40 40 40 39 39 38 38 38 37 35 34 34 33 33 34 34 34 33 34 34 33 33 34 35 36 36 35 35 35 35 35 35 35 34 34 34 34 34 33 34 34 35 35 35 36 36 37 38 38 38 39
MSLP
1016.43 1016.55 1016.67 1016.83 1016.91 1016.99 1017.07 1017.27 1017.39 1017.43 1017.43 1017.39 1017.31 1017.31 1017.31 1017.31 1017.31 1017.27 1017.27 1017.27 1017.23 1017.23 1017.23 1017.27 1017.27 1017.27 1017.27 1017.31 1017.31 1017.27 1017.23 1017.19 1017.15 1017.07 1016.99 1016.91 1016.83 1016.75 1016.71 1016.67 1016.63 1016.55 1016.43 1016.35 1016.27 1016.15 1016.07 1015.99 1015.87 1015.71 1015.51 1015.39 1015.23 1015.11 1014.99 1014.95 1014.87 1014.75 1014.59 1014.47 1014.27 1014.15 1013.99 1013.87 1013.71 1013.59 1013.47 1013.43 1013.31
1016.43 1016.63 1016.83 1016.95 1017.03 1017.07 1017.15 1017.23 1017.35 1017.43 1017.39 1017.31 1017.31 1017.27 1017.27 1017.27 1017.23 1017.23 1017.23 1017.23 1017.23 1017.23 1017.23 1017.19 1017.19 1017.19 1017.19 1017.19 1017.23 1017.19 1017.15 1017.07 1016.99 1016.95 1016.87 1016.75 1016.71 1016.67 1016.59 1016.51 1016.47 1016.43 1016.31 1016.27 1016.19 1016.07 1015.95 1015.83 1015.71 1015.55 1015.35 1015.15 1015.03 1014.87 1014.71 1014.67 1014.63 1014.51 1014.31 1014.19 1014.11 1013.95 1013.79 1013.59 1013.43 1013.31 1013.23 1013.11 1012.99
1016.47 1016.63 1016.79 1016.87 1016.91 1016.95 1016.99 1017.03 1017.07 1017.11 1017.15 1017.15 1017.19 1017.19 1017.19 1017.19 1017.19 1017.19 1017.19 1017.19 1017.23 1017.27 1017.23 1017.15 1017.15 1017.15 1017.15 1017.15 1017.15 1017.15 1017.11 1016.99 1016.91 1016.83 1016.71 1016.59 1016.55 1016.47 1016.43 1016.35 1016.27 1016.23 1016.15 1016.11 1016.03 1015.95 1015.87 1015.71 1015.59 1015.43 1015.27 1015.07 1014.87 1014.67 1014.47 1014.35 1014.27 1014.15 1013.99 1013.87 1013.75 1013.63 1013.43 1013.27 1013.11 1012.99 1012.91 1012.79 1012.67
1016.43 1016.59 1016.63 1016.67 1016.71 1016.71 1016.83 1016.91 1016.95 1016.99 1016.99 1017.11 1017.15 1017.15 1017.15 1017.15 1017.19 1017.23 1017.23 1017.19 1017.19 1017.15 1017.15 1017.11 1017.11 1017.15 1017.19 1017.15 1017.15 1017.07 1016.99 1016.91 1016.83 1016.71 1016.59 1016.51 1016.43 1016.35 1016.27 1016.27 1016.15 1016.03 1015.99 1015.91 1015.87 1015.75 1015.71 1015.59 1015.47 1015.31 1015.15 1014.91 1014.71 1014.55 1014.35 1014.15 1013.99 1013.87 1013.67 1013.51 1013.43 1013.23 1013.03 1012.87 1012.75 1012.71 1012.59 1012.43 1012.31
1016.43 1016.47 1016.51 1016.55 1016.63 1016.71 1016.83 1016.87 1016.91 1016.95 1016.99 1017.03 1017.07 1017.11 1017.15 1017.15 1017.15 1017.19 1017.19 1017.15 1017.15 1017.07 1017.03 1017.03 1017.11 1017.15 1017.19 1017.15 1017.03 1016.91 1016.87 1016.79 1016.71 1016.63 1016.51 1016.43 1016.31 1016.27 1016.23 1016.15 1016.03 1015.91 1015.83 1015.79 1015.71 1015.63 1015.59 1015.51 1015.35 1015.15 1014.95 1014.75 1014.59 1014.35 1014.15 1013.99 1013.83 1013.63 1013.43 1013.27 1013.07 1012.91 1012.75 1012.59 1012.43 1012.35 1012.27 1012.15 1012.03
1016.31 1016.43 1016.55 1016.59 1016.67 1016.71 1016.83 1016.87 1016.91 1016.95 1016.99 1017.03 1017.03 1017.03 1017.03 1017.03 1017.11 1017.11 1017.07 1017.03 1017.03 1016.99 1017.03 1017.03 1017.07 1017.11 1017.11 1017.03 1016.95 1016.83 1016.71 1016.63 1016.59 1016.55 1016.47 1016.39 1016.31 1016.27 1016.15 1015.99 1015.91 1015.83 1015.71 1015.63 1015.55 1015.47 1015.43 1015.39 1015.19 1014.95 1014.71 1014.55 1014.35 1014.15 1013.95 1013.83 1013.63 1013.43 1013.19 1012.99 1012.83 1012.63 1012.47 1012.27 1012.15 1011.99 1011.91 1011.79 1011.71
1016.23 1016.35 1016.47 1016.59 1016.63 1016.67 1016.71 1016.75 1016.87 1016.91 1016.99 1016.99 1016.99 1016.95 1016.99 1016.99 1017.03 1017.03 1017.07 1017.03 1016.99 1016.99 1016.99 1016.99 1016.99 1016.99 1016.95 1016.87 1016.79 1016.71 1016.67 1016.59 1016.55 1016.47 1016.43 1016.31 1016.23 1016.11 1015.99 1015.87 1015.75 1015.67 1015.55 1015.43 1015.31 1015.23 1015.19 1015.15 1014.95 1014.71 1014.47 1014.35 1014.11 1013.87 1013.71 1013.63 1013.43 1013.19 1012.99 1012.75 1012.59 1012.43 1012.23 1012.03 1011.87 1011.75 1011.63 1011.47 1011.39
1016.15 1016.23 1016.31 1016.39 1016.43 1016.47 1016.59 1016.71 1016.79 1016.83 1016.87 1016.87 1016.87 1016.91 1016.95 1016.95 1016.99 1017.03 1017.03 1016.99 1016.99 1016.95 1016.91 1016.91 1016.87 1016.87 1016.83 1016.79 1016.71 1016.67 1016.59 1016.51 1016.43 1016.39 1016.31 1016.19 1016.03 1015.87 1015.71 1015.63 1015.51 1015.39 1015.31 1015.19 1015.07 1014.95 1014.87 1014.79 1014.63 1014.39 1014.19 1014.07 1013.83 1013.59 1013.43 1013.39 1013.27 1013.07 1012.87 1012.63 1012.43 1012.23 1012.07 1011.91 1011.75 1011.59 1011.43 1011.31 1011.19
1016.07 1016.15 1016.19 1016.23 1016.31 1016.43 1016.59 1016.67 1016.75 1016.79 1016.79 1016.79 1016.87 1016.87 1016.91 1016.99 1016.99 1017.03 1016.99 1016.99 1016.91 1016.87 1016.87 1016.87 1016.87 1016.83 1016.75 1016.71 1016.67 1016.63 1016.59 1016.51 1016.43 1016.27 1016.15 1016.03 1015.87 1015.67 1015.51 1015.35 1015.23 1015.07 1014.95 1014.87 1014.75 1014.63 1014.51 1014.43 1014.27 1014.11 1013.87 1013.71 1013.55 1013.35 1013.23 1013.19 1013.07 1012.95 1012.75 1012.59 1012.35 1012.11 1011.91 1011.71 1011.59 1011.39 1011.19 1011.03 1010.95
1015.91 1015.95 1015.99 1016.11 1016.27 1016.39 1016.51 1016.59 1016.67 1016.71 1016.71 1016.71 1016.71 1016.79 1016.87 1016.95 1016.99 1016.99 1016.95 1016.91 1016.87 1016.87 1016.83 1016.79 1016.79 1016.75 1016.71 1016.63 1016.59 1016.55 1016.47 1016.39 1016.27 1016.11 1015.95 1015.83 1015.63 1015.43 1015.31 1015.11 1014.91 1014.75 1014.63 1014.55 1014.43 1014.35 1014.23 1014.15 1013.99 1013.79 1013.63 1013.47 1013.31 1013.15 1013.03 1012.99 1012.91 1012.79 1012.63 1012.51 1012.27 1012.03 1011.83 1011.63 1011.43 1011.15 1010.95 1010.79 1010.67
1015.71 1015.79 1015.87 1015.99 1016.19 1016.35 1016.43 1016.51 1016.55 1016.59 1016.59 1016.63 1016.67 1016.71 1016.75 1016.83 1016.87 1016.87 1016.83 1016.83 1016.83 1016.75 1016.71 1016.71 1016.71 1016.63 1016.59 1016.51 1016.43 1016.35 1016.27 1016.15 1015.99 1015.79 1015.59 1015.43 1015.23 1015.07 1014.91 1014.75 1014.59 1014.43 1014.31 1014.27 1014.19 1014.15 1013.99 1013.87 1013.67 1013.55 1013.39 1013.27 1013.11 1012.95 1012.83 1012.75 1012.67 1012.55 1012.39 1012.23 1012.11 1011.91 1011.71 1011.43 1011.31 1011.03 1010.79 1010.55 1010.39
1015.63 1015.75 1015.91 1016.07 1016.19 1016.27 1016.35 1016.39 1016.43 1016.43 1016.47 1016.51 1016.59 1016.59 1016.63 1016.63 1016.63 1016.67 1016.71 1016.71 1016.63 1016.59 1016.55 1016.55 1016.51 1016.47 1016.39 1016.27 1016.15 1016.07 1015.95 1015.79 1015.63 1015.47 1015.31 1015.07 1014.91 1014.75 1014.59 1014.43 1014.31 1014.19 1014.07 1013.99 1013.99 1013.91 1013.79 1013.63 1013.47 1013.31 1013.15 1012.99 1012.91 1012.75 1012.59 1012.43 1012.35 1012.23 1012.03 1011.87 1011.75 1011.59 1011.43 1011.23 1011.11 1010.91 1010.67 1010.39 1010.15
1015.63 1015.79 1015.91 1016.03 1016.15 1016.23 1016.27 1016.31 1016.35 1016.39 1016.39 1016.43 1016.43 1016.51 1016.51 1016.51 1016.51 1016.51 1016.55 1016.51 1016.43 1016.39 1016.35 1016.35 1016.31 1016.27 1016.15 1015.99 1015.87 1015.75 1015.63 1015.47 1015.31 1015.15 1014.99 1014.79 1014.63 1014.47 1014.31 1014.15 1014.07 1013.99 1013.87 1013.75 1013.75 1013.71 1013.55 1013.39 1013.23 1013.07 1012.91 1012.75 1012.67 1012.51 1012.35 1012.19 1012.07 1011.91 1011.71 1011.51 1011.35 1011.19 1010.99 1010.87 1010.75 1010.63 1010.47 1010.27 1010.03
1015.67 1015.79 1015.87 1015.99 1016.11 1016.15 1016.19 1016.19 1016.23 1016.27 1016.27 1016.27 1016.31 1016.35 1016.35 1016.35 1016.35 1016.35 1016.35 1016.31 1016.27 1016.23 1016.19 1016.15 1016.11 1015.99 1015.91 1015.79 1015.67 1015.51 1015.39 1015.23 1015.07 1014.87 1014.71 1014.55 1014.39 1014.23 1014.07 1013.91 1013.83 1013.71 1013.59 1013.55 1013.47 1013.43 1013.31 1013.11 1012.95 1012.83 1012.67 1012.51 1012.35 1012.23 1012.11 1011.99 1011.83 1011.63 1011.43 1011.27 1010.99 1010.83 1010.67 1010.51 1010.43 1010.31 1010.19 1010.03 1009.87
1015.67 1015.75 1015.87 1015.95 1016.03 1016.07 1016.11 1016.11 1016.11 1016.11 1016.11 1016.15 1016.15 1016.19 1016.23 1016.23 1016.23 1016.23 1016.23 1016.23 1016.19 1016.15 1016.11 1015.99 1015.87 1015.79 1015.71 1015.59 1015.47 1015.31 1015.15 1014.99 1014.83 1014.63 1014.43 1014.23 1014.11 1013.95 1013.79 1013.63 1013.51 1013.43 1013.31 1013.19 1013.15 1013.07 1012.99 1012.83 1012.67 1012.55 1012.43 1012.27 1012.07 1011.91 1011.83 1011.71 1011.59 1011.39 1011.19 1010.99 1010.79 1010.59 1010.43 1010.27 1010.15 1010.03 1009.91 1009.75 1009.59
1015.59 1015.67 1015.75 1015.87 1015.91 1015.95 1015.99 1015.99 1015.99 1015.99 1015.99 1015.99 1016.03 1016.07 1016.11 1016.11 1016.07 1016.11 1016.15 1016.15 1016.07 1016.03 1015.95 1015.83 1015.71 1015.59 1015.47 1015.39 1015.27 1015.15 1014.95 1014.75 1014.59 1014.35 1014.15 1013.91 1013.71 1013.59 1013.43 1013.31 1013.15 1013.03 1012.95 1012.87 1012.75 1012.71 1012.59 1012.51 1012.43 1012.27 1012.15 1011.99 1011.83 1011.67 1011.51 1011.39 1011.27 1011.11 1010.95 1010.79 1010.63 1010.47 1010.27 1010.15 1009.99 1009.87 1009.71 1009.59 1009.39
1015.51 1015.59 1015.63 1015.71 1015.75 1015.79 1015.83 1015.83 1015.87 1015.87 1015.87 1015.91 1015.99 1015.99 1015.99 1015.99 1015.95 1015.95 1015.99 1015.99 1015.95 1015.87 1015.75 1015.67 1015.59 1015.43 1015.27 1015.11 1014.99 1014.87 1014.71 1014.47 1014.27 1014.07 1013.87 1013.59 1013.43 1013.27 1013.11 1012.99 1012.87 1012.71 1012.63 1012.55 1012.43 1012.31 1012.23 1012.15 1012.07 1011.99 1011.87 1011.75 1011.59 1011.43 1011.27 1011.15 1010.99 1010.87 1010.71 1010.59 1010.51 1010.35 1010.23 1010.07 1009.95 1009.79 1009.63 1009.51 1009.31
1015.39 1015.43 1015.51 1015.59 1015.59 1015.63 1015.71 1015.71 1015.75 1015.75 1015.79 1015.83 1015.87 1015.87 1015.87 1015.87 1015.83 1015.83 1015.83 1015.79 1015.75 1015.71 1015.59 1015.47 1015.39 1015.27 1015.11 1014.91 1014.75 1014.59 1014.43 1014.23 1013.99 1013.79 1013.59 1013.39 1013.19 1012.99 1012.87 1012.71 1012.59 1012.51 1012.43 1012.31 1012.19 1012.07 1011.95 1011.87 1011.79 1011.71 1011.59 1011.47 1011.31 1011.19 1011.11 1010.99 1010.87 1010.71 1010.63 1010.51 1010.43 1010.27 1010.15 1010.03 1009.91 1009.79 1009.63 1009.43 1009.27
1015.23 1015.31 1015.35 1015.39 1015.43 1015.51 1015.59 1015.59 1015.63 1015.67 1015.71 1015.75 1015.75 1015.75 1015.75 1015.71 1015.71 1015.71 1015.63 1015.59 1015.59 1015.47 1015.39 1015.27 1015.11 1014.99 1014.87 1014.67 1014.51 1014.35 1014.19 1013.99 1013.79 1013.59 1013.39 1013.19 1012.99 1012.83 1012.67 1012.55 1012.39 1012.27 1012.15 1012.07 1011.95 1011.83 1011.71 1011.59 1011.51 1011.43 1011.31 1011.23 1011.11 1010.99 1010.95 1010.87 1010.79 1010.71 1010.59 1010.47 1010.35 1010.23 1010.11 1009.99 1009.87 1009.71 1009.59 1009.43 1009.23
1015.07 1015.15 1015.19 1015.27 1015.31 1015.39 1015.43 1015.47 1015.51 1015.55 1015.59 1015.63 1015.63 1015.63 1015.59 1015.59 1015.59 1015.55 1015.47 1015.39 1015.35 1015.31 1015.15 1014.99 1014.87 1014.71 1014.55 1014.39 1014.23 1014.07 1013.91 1013.75 1013.55 1013.31 1013.11 1012.95 1012.79 1012.59 1012.43 1012.31 1012.15 1012.07 1011.95 1011.83 1011.67 1011.55 1011.43 1011.35 1011.23 1011.15 1011.07 1010.99 1010.95 1010.87 1010.79 1010.71 1010.63 1010.55 1010.43 1010.39 1010.23 1010.11 1009.99 1009.87 1009.75 1009.63 1009.51 1009.35 1009.19
1014.91 1014.99 1015.07 1015.15 1015.23 1015.31 1015.31 1015.35 1015.43 1015.43 1015.43 1015.47 1015.43 1015.43 1015.43 1015.43 1015.39 1015.31 1015.27 1015.19 1015.15 1015.03 1014.91 1014.75 1014.59 1014.43 1014.27 1014.11 1013.91 1013.75 1013.59 1013.43 1013.23 1013.03 1012.87 1012.71 1012.59 1012.43 1012.27 1012.15 1011.99 1011.83 1011.71 1011.55 1011.43 1011.31 1011.15 1011.11 1011.03 1010.99 1010.95 1010.91 1010.79 1010.71 1010.63 1010.55 1010.43 1010.31 1010.23 1010.15 1009.99 1009.87 1009.75 1009.71 1009.59 1009.47 1009.35 1009.19 1009.07
1014.79 1014.87 1014.99 1014.99 1015.11 1015.15 1015.23 1015.27 1015.31 1015.31 1015.31 1015.27 1015.27 1015.27 1015.23 1015.19 1015.15 1015.15 1015.07 1014.99 1014.95 1014.79 1014.63 1014.47 1014.31 1014.15 1013.99 1013.79 1013.59 1013.43 1013.27 1013.15 1012.99 1012.83 1012.71 1012.55 1012.35 1012.23 1012.11 1011.95 1011.79 1011.59 1011.43 1011.27 1011.15 1011.03 1010.95 1010.91 1010.87 1010.87 1010.83 1010.75 1010.63 1010.55 1010.43 1010.35 1010.19 1010.03 1009.91 1009.83 1009.71 1009.59 1009.51 1009.43 1009.31 1009.27 1009.15 1008.99 1008.87
1014.71 1014.83 1014.87 1014.95 1014.99 1015.03 1015.11 1015.15 1015.15 1015.15 1015.11 1015.07 1015.07 1015.03 1014.99 1014.99 1014.95 1014.87 1014.87 1014.79 1014.71 1014.59 1014.43 1014.27 1014.15 1013.95 1013.75 1013.59 1013.39 1013.19 1013.03 1012.87 1012.71 1012.59 1012.43 1012.31 1012.15 1011.99 1011.87 1011.71 1011.51 1011.31 1011.11 1010.95 1010.83 1010.75 1010.71 1010.71 1010.71 1010.71 1010.71 1010.59 1010.47 1010.35 1010.27 1010.15 1009.99 1009.83 1009.67 1009.51 1009.39 1009.27 1009.15 1009.03 1008.99 1008.87 1008.83 1008.71 1008.63
1014.67 1014.75 1014.83 1014.87 1014.91 1014.95 1014.95 1014.99 1014.95 1014.91 1014.87 1014.87 1014.83 1014.79 1014.71 1014.71 1014.71 1014.67 1014.59 1014.55 1014.43 1014.35 1014.27 1014.15 1013.91 1013.71 1013.51 1013.35 1013.15 1012.99 1012.83 1012.63 1012.43 1012.23 1012.11 1011.99 1011.87 1011.71 1011.55 1011.39 1011.19 1010.99 1010.75 1010.63 1010.59 1010.59 1010.63 1010.71 1010.67 1010.67 1010.59 1010.51 1010.39 1010.23 1010.07 1009.95 1009.79 1009.59 1009.43 1009.23 1009.03 1008.87 1008.75 1008.63 1008.55 1008.47 1008.43 1008.31 1008.23
1014.59 1014.63 1014.71 1014.75 1014.83 1014.83 1014.83 1014.79 1014.75 1014.71 1014.67 1014.63 1014.59 1014.51 1014.47 1014.47 1014.43 1014.43 1014.35 1014.27 1014.19 1014.11 1013.99 1013.83 1013.67 1013.47 1013.31 1013.11 1012.87 1012.71 1012.55 1012.35 1012.15 1011.95 1011.75 1011.63 1011.55 1011.43 1011.27 1011.11 1010.87 1010.67 1010.51 1010.43 1010.47 1010.59 1010.71 1010.75 1010.75 1010.67 1010.51 1010.39 1010.23 1010.07 1009.91 1009.79 1009.59 1009.43 1009.31 1009.07 1008.87 1008.71 1008.51 1008.31 1008.19 1008.07 1007.99 1007.87 1007.75
1014.51 1014.51 1014.59 1014.63 1014.71 1014.71 1014.67 1014.63 1014.59 1014.51 1014.47 1014.43 1014.35 1014.27 1014.27 1014.19 1014.19 1014.15 1014.11 1013.99 1013.91 1013.79 1013.67 1013.51 1013.31 1013.15 1012.99 1012.79 1012.59 1012.35 1012.15 1011.99 1011.83 1011.63 1011.47 1011.31 1011.15 1011.07 1010.91 1010.75 1010.59 1010.43 1010.31 1010.27 1010.39 1010.47 1010.59 1010.63 1010.67 1010.59 1010.47 1010.27 1010.07 1009.87 1009.71 1009.51 1009.35 1009.23 1009.11 1008.87 1008.71 1008.47 1008.27 1008.03 1007.87 1007.71 1007.59 1007.43 1007.31
1014.35 1014.43 1014.47 1014.55 1014.55 1014.55 1014.51 1014.47 1014.43 1014.35 1014.27 1014.27 1014.15 1014.11 1014.03 1013.99 1013.99 1013.91 1013.83 1013.71 1013.59 1013.43 1013.31 1013.15 1012.99 1012.83 1012.63 1012.43 1012.19 1011.99 1011.87 1011.67 1011.55 1011.39 1011.27 1011.11 1010.95 1010.79 1010.63 1010.43 1010.31 1010.19 1010.15 1010.15 1010.23 1010.27 1010.35 1010.35 1010.39 1010.35 1010.27 1010.11 1009.87 1009.71 1009.47 1009.23 1009.07 1008.95 1008.83 1008.59 1008.43 1008.23 1007.99 1007.71 1007.51 1007.35 1007.23 1007.11 1006.99
1014.27 1014.27 1014.31 1014.43 1014.43 1014.39 1014.35 1014.31 1014.27 1014.19 1014.15 1014.11 1013.99 1013.95 1013.87 1013.87 1013.79 1013.67 1013.55 1013.43 1013.31 1013.15 1012.99 1012.83 1012.63 1012.43 1012.23 1011.99 1011.79 1011.63 1011.55 1011.43 1011.27 1011.15 1010.99 1010.83 1010.63 1010.43 1010.27 1010.11 1009.99 1009.91 1009.91 1009.99 1010.03 1010.07 1010.07 1010.03 1009.99 1009.99 1009.91 1009.83 1009.63 1009.43 1009.23 1008.99 1008.83 1008.67 1008.47 1008.27 1008.03 1007.83 1007.59 1007.43 1007.19 1006.99 1006.87 1006.71 1006.59
1014.11 1014.15 1014.23 1014.27 1014.27 1014.27 1014.23 1014.15 1014.11 1014.03 1013.99 1013.95 1013.87 1013.83 1013.75 1013.67 1013.59 1013.43 1013.31 1013.15 1012.99 1012.83 1012.59 1012.43 1012.23 1012.07 1011.87 1011.71 1011.51 1011.39 1011.27 1011.15 1010.99 1010.87 1010.71 1010.51 1010.31 1010.15 1009.99 1009.87 1009.79 1009.75 1009.79 1009.87 1009.87 1009.83 1009.75 1009.71 1009.63 1009.59 1009.51 1009.47 1009.31 1009.15 1008.91 1008.71 1008.55 1008.31 1008.11 1007.87 1007.63 1007.43 1007.23 1007.03 1006.87 1006.71 1006.55 1006.43 1006.27
1013.99 1014.07 1014.11 1014.11 1014.11 1014.11 1014.07 1013.99 1013.99 1013.95 1013.91 1013.87 1013.75 1013.67 1013.55 1013.43 1013.31 1013.15 1013.03 1012.87 1012.67 1012.47 1012.27 1012.11 1011.95 1011.79 1011.63 1011.43 1011.31 1011.15 1010.95 1010.75 1010.63 1010.51 1010.39 1010.19 1009.99 1009.87 1009.75 1009.71 1009.71 1009.63 1009.59 1009.59 1009.59 1009.51 1009.43 1009.31 1009.27 1009.19 1009.11 1009.03 1008.99 1008.83 1008.59 1008.39 1008.19 1007.99 1007.71 1007.47 1007.23 1006.99 1006.83 1006.67 1006.55 1006.39 1006.27 1006.11 1005.99
1013.87 1013.91 1013.95 1013.95 1013.95 1013.95 1013.91 1013.87 1013.87 1013.87 1013.79 1013.71 1013.59 1013.51 1013.39 1013.27 1013.11 1012.91 1012.75 1012.59 1012.39 1012.19 1012.03 1011.91 1011.71 1011.55 1011.39 1011.19 1011.03 1010.83 1010.63 1010.43 1010.31 1010.19 1010.07 1009.91 1009.75 1009.67 1009.59 1009.59 1009.55 1009.47 1009.39 1009.35 1009.31 1009.15 1009.07 1008.99 1008.87 1008.79 1008.71 1008.59 1008.55 1008.43 1008.23 1008.03 1007.87 1007.63 1007.39 1007.15 1006.83 1006.63 1006.47 1006.35 1006.19 1006.07 1005.95 1005.87 1005.71
1013.75 1013.79 1013.83 1013.83 1013.79 1013.79 1013.79 1013.79 1013.75 1013.71 1013.67 1013.59 1013.43 1013.31 1013.19 1013.07 1012.87 1012.71 1012.51 1012.35 1012.19 1011.99 1011.83 1011.59 1011.43 1011.27 1011.03 1010.87 1010.71 1010.51 1010.35 1010.23 1010.11 1009.99 1009.87 1009.75 1009.63 1009.59 1009.51 1009.43 1009.39 1009.23 1009.15 1009.03 1008.95 1008.83 1008.71 1008.59 1008.47 1008.39 1008.27 1008.19 1008.15 1008.03 1007.87 1007.63 1007.43 1007.19 1006.95 1006.71 1006.43 1006.27 1006.15 1005.99 1005.87 1005.71 1005.59 1005.51 1005.43
1013.67 1013.71 1013.71 1013.71 1013.71 1013.71 1013.71 1013.71 1013.63 1013.59 1013.51 1013.43 1013.31 1013.15 1012.99 1012.87 1012.67 1012.55 1012.39 1012.19 1011.99 1011.79 1011.59 1011.35 1011.15 1010.99 1010.79 1010.63 1010.43 1010.27 1010.15 1010.03 1009.91 1009.83 1009.71 1009.71 1009.59 1009.51 1009.39 1009.23 1009.11 1008.95 1008.83 1008.71 1008.59 1008.47 1008.39 1008.27 1008.11 1007.99 1007.87 1007.75 1007.67 1007.59 1007.39 1007.15 1006.99 1006.71 1006.47 1006.23 1005.99 1005.83 1005.71 1005.55 1005.43 1005.31 1005.15 1005.07 1004.99
1013.59 1013.59 1013.59 1013.59 1013.59 1013.59 1013.59 1013.59 1013.47 1013.43 1013.31 1013.19 1013.07 1012.99 1012.87 1012.71 1012.51 1012.31 1012.15 1011.99 1011.75 1011.59 1011.39 1011.15 1010.99 1010.87 1010.67 1010.47 1010.27 1010.11 1009.99 1009.87 1009.79 1009.71 1009.59 1009.59 1009.47 1009.35 1009.15 1008.99 1008.83 1008.71 1008.55 1008.43 1008.27 1008.15 1007.99 1007.83 1007.67 1007.55 1007.43 1007.31 1007.27 1007.11 1006.87 1006.67 1006.43 1006.23 1005.99 1005.75 1005.55 1005.35 1005.23 1005.11 1004.95 1004.83 1004.71 1004.63 1004.59
1013.43 1013.43 1013.43 1013.51 1013.55 1013.55 1013.47 1013.43 1013.31 1013.23 1013.15 1012.99 1012.91 1012.83 1012.71 1012.51 1012.27 1012.07 1011.87 1011.71 1011.55 1011.35 1011.15 1010.99 1010.87 1010.71 1010.51 1010.31 1010.15 1009.99 1009.87 1009.71 1009.63 1009.59 1009.51 1009.47 1009.35 1009.15 1008.99 1008.71 1008.51 1008.31 1008.19 1008.07 1007.87 1007.71 1007.59 1007.43 1007.27 1007.15 1006.99 1006.91 1006.83 1006.63 1006.43 1006.19 1005.91 1005.71 1005.47 1005.27 1005.03 1004.87 1004.71 1004.59 1004.47 1004.35 1004.27 1004.19 1004.15
1013.27 1013.35 1013.43 1013.51 1013.47 1013.43 1013.31 1013.23 1013.15 1013.03 1012.95 1012.87 1012.75 1012.63 1012.47 1012.27 1012.07 1011.87 1011.71 1011.55 1011.35 1011.15 1010.95 1010.79 1010.63 1010.47 1010.27 1010.11 1009.95 1009.83 1009.71 1009.59 1009.47 1009.43 1009.39 1009.31 1009.19 1008.99 1008.71 1008.43 1008.15 1007.95 1007.79 1007.67 1007.51 1007.35 1007.19 1007.03 1006.87 1006.75 1006.63 1006.55 1006.39 1006.19 1005.95 1005.71 1005.43 1005.15 1004.95 1004.71 1004.51 1004.27 1004.15 1004.07 1003.95 1003.87 1003.75 1003.71 1003.63
1013.15 1013.27 1013.35 1013.39 1013.31 1013.19 1013.15 1013.07 1012.99 1012.87 1012.79 1012.67 1012.59 1012.43 1012.23 1011.99 1011.83 1011.67 1011.51 1011.39 1011.19 1010.95 1010.75 1010.59 1010.43 1010.27 1010.11 1009.95 1009.79 1009.67 1009.59 1009.51 1009.43 1009.31 1009.19 1009.07 1008.95 1008.75 1008.43 1008.15 1007.83 1007.59 1007.43 1007.31 1007.15 1006.99 1006.87 1006.71 1006.55 1006.43 1006.27 1006.15 1005.95 1005.71 1005.47 1005.23 1004.99 1004.71 1004.43 1004.23 1003.99 1003.79 1003.63 1003.55 1003.43 1003.31 1003.19 1003.15 1003.11
1013.03 1013.15 1013.19 1013.19 1013.11 1013.03 1012.99 1012.95 1012.87 1012.75 1012.63 1012.47 1012.35 1012.15 1011.99 1011.87 1011.67 1011.47 1011.39 1011.31 1011.11 1010.87 1010.59 1010.43 1010.27 1010.11 1009.95 1009.83 1009.71 1009.59 1009.51 1009.43 1009.35 1009.19 1008.99 1008.79 1008.67 1008.47 1008.23 1007.87 1007.59 1007.31 1007.15 1006.99 1006.87 1006.71 1006.51 1006.31 1006.15 1005.99 1005.87 1005.75 1005.59 1005.31 1005.07 1004.83 1004.55 1004.27 1004.03 1003.79 1003.51 1003.31 1003.15 1003.03 1002.91 1002.75 1002.63 1002.55 1002.51
1012.95 1012.99 1012.99 1012.99 1012.99 1012.95 1012.91 1012.87 1012.75 1012.63 1012.51 1012.35 1012.15 1011.99 1011.87 1011.71 1011.55 1011.39 1011.27 1011.19 1010.99 1010.79 1010.51 1010.27 1010.07 1009.95 1009.87 1009.75 1009.67 1009.55 1009.39 1009.27 1009.15 1008.99 1008.75 1008.59 1008.39 1008.23 1007.99 1007.71 1007.35 1007.07 1006.87 1006.71 1006.55 1006.39 1006.15 1005.99 1005.79 1005.59 1005.47 1005.39 1005.19 1004.95 1004.71 1004.39 1004.11 1003.83 1003.59 1003.35 1003.07 1002.87 1002.67 1002.55 1002.43 1002.27 1002.15 1001.99 1001.99
1012.95 1012.95 1012.95 1012.91 1012.91 1012.87 1012.79 1012.71 1012.63 1012.51 1012.43 1012.23 1012.07 1011.91 1011.71 1011.59 1011.43 1011.31 1011.19 1011.03 1010.87 1010.67 1010.43 1010.19 1009.99 1009.83 1009.71 1009.71 1009.59 1009.43 1009.19 1008.99 1008.87 1008.71 1008.55 1008.31 1008.15 1007.95 1007.75 1007.51 1007.15 1006.83 1006.59 1006.39 1006.19 1005.99 1005.83 1005.59 1005.43 1005.27 1005.11 1004.99 1004.79 1004.59 1004.27 1003.99 1003.71 1003.43 1003.15 1002.87 1002.63 1002.39 1002.19 1002.07 1001.95 1001.79 1001.63 1001.51 1001.43
1012.91 1012.91 1012.87 1012.87 1012.87 1012.79 1012.71 1012.63 1012.51 1012.43 1012.27 1012.15 1011.99 1011.83 1011.67 1011.55 1011.35 1011.19 1011.03 1010.87 1010.67 1010.47 1010.31 1010.11 1009.87 1009.71 1009.67 1009.63 1009.51 1009.31 1008.99 1008.71 1008.55 1008.43 1008.27 1008.11 1007.87 1007.67 1007.43 1007.23 1006.91 1006.59 1006.27 1005.99 1005.83 1005.63 1005.43 1005.23 1005.07 1004.91 1004.75 1004.63 1004.43 1004.23 1003.99 1003.67 1003.31 1002.99 1002.67 1002.43 1002.19 1001.99 1001.79 1001.59 1001.43 1001.31 1001.15 1000.99 1000.87
Wind_Speed
6 5 4 3 3 3 3 2 2 2 2 2 2 2 1 2 2 2 3 3 3 4 4 4 5 6 7 9 10 11 11 12 12 13 13 14 14 14 14 14 14 14 14 14 14 14 13 13 13 11 10 10 12 13 13 12 13 14 15 16 15 16 17 19 19 19 20 21 18
7 6 5 4 4 3 3 3 3 3 3 3 2 2 2 2 2 3 3 4 4 4 5 5 6 7 8 10 10 11 11 12 13 13 13 14 14 14 14 13 14 14 14 14 14 13 12 13 12 11 10 10 11 12 13 12 13 15 17 19 16 15 15 17 18 19 20 20 19
7 7 6 6 5 5 4 4 4 4 3 2 1 1 2 2 3 3 4 4 5 5 6 6 6 7 9 10 10 10 11 12 13 13 13 13 13 14 14 13 14 14 14 14 14 13 12 13 12 11 10 10 11 12 13 14 14 15 17 18 15 14 13 13 15 16 16 15 17
8 7 7 7 6 5 4 3 3 2 1 0 1 2 2 3 3 3 4 5 6 6 6 6 6 7 8 9 10 11 11 12 13 13 13 13 14 14 15 15 15 15 15 14 14 15 14 14 12 11 11 12 14 14 13 12 14 15 15 14 14 13 13 13 13 13 13 13 15
8 7 6 5 6 5 4 3 2 1 0 1 2 2 2 3 3 4 4 5 5 6 7 8 7 7 7 9 11 12 13 13 13 12 12 13 14 14 15 15 15 15 15 15 15 15 15 15 12 11 11 12 12 12 13 14 15 15 14 12 12 13 13 13 13 13 13 13 14
7 7 6 5 5 4 3 2 1 0 1 1 2 3 3 3 4 4 5 6 7 8 9 9 8 8 8 10 12 12 12 12 12 12 12 13 13 14 15 16 16 15 15 15 15 16 15 14 12 11 11 11 12 13 15 16 16 15 14 13 13 13 13 14 13 13 14 15 16
8 8 7 6 5 4 3 2 1 0 1 2 3 4 5 5 6 6 7 7 7 8 8 7 7 8 9 10 11 11 12 12 12 13 14 14 14 15 15 15 15 16 16 15 16 15 15 14 12 11 10 11 11 13 15 16 15 15 15 14 13 13 13 15 13 13 15 19 21
8 7 7 6 5 3 2 1 0 1 2 3 4 5 6 7 7 8 8 8 8 8 7 7 8 10 11 11 11 12 12 13 13 13 14 14 15 16 16 16 16 16 16 16 16 15 15 13 11 11 11 11 10 12 14 16 16 16 16 16 14 14 13 13 13 14 16 20 22
7 6 5 5 4 3 2 0 1 2 3 4 5 6 7 7 8 8 8 8 8 8 8 8 10 11 12 12 13 13 12 13 13 14 14 14 15 16 16 15 15 16 16 15 16 16 16 13 11 11 11 11 11 12 14 16 17 17 17 16 16 15 15 15 16 17 19 20 22
6 5 4 4 3 2 1 1 2 3 4 5 6 7 7 7 7 8 8 7 7 8 9 9 10 11 12 13 13 13 13 13 13 14 15 15 15 16 16 15 15 16 15 15 14 15 15 13 12 13 13 13 14 15 16 17 18 18 18 15 15 17 19 19 20 20 21 20 21
5 4 3 3 2 1 1 2 3 3 4 5 6 7 7 7 8 8 8 7 8 10 11 11 11 12 12 12 13 13 13 13 13 14 15 15 16 16 16 16 16 16 16 15 14 14 13 12 13 15 16 16 16 17 17 18 19 19 19 17 18 20 21 22 21 21 21 21 22
4 4 3 2 1 1 2 3 3 4 5 6 7 7 7 8 8 8 9 9 10 11 11 11 12 12 12 12 12 13 13 14 14 15 15 16 16 17 17 17 17 17 17 17 15 13 12 13 15 16 18 19 16 15 16 19 19 20 20 20 20 21 21 22 22 21 20 21 22
4 3 2 2 1 2 2 3 4 5 6 6 7 7 7 8 8 9 9 11 11 11 10 11 12 12 12 12 13 13 13 14 15 15 15 16 16 17 17 17 17 17 17 16 15 14 14 14 16 18 19 19 17 16 17 19 20 20 21 21 21 22 22 22 22 22 22 23 23
3 3 2 2 2 3 3 4 5 5 6 7 7 7 7 8 8 9 9 10 11 11 11 11 11 11 12 13 13 14 14 14 15 16 16 16 16 17 17 17 17 17 16 15 15 15 16 16 17 18 19 20 19 19 19 20 20 20 21 22 22 22 23 22 22 22 23 24 24
3 3 3 3 3 4 4 5 5 5 6 7 7 7 7 7 8 8 9 10 11 11 11 11 11 11 12 13 14 15 15 15 16 17 17 17 17 17 17 17 17 17 16 15 15 16 17 18 19 19 19 20 20 20 20 20 20 21 21 21 22 23 23 23 23 22 22 23 23
4 4 4 4 5 5 5 5 5 5 6 6 7 7 7 7 8 8 9 10 10 10 10 11 12 12 12 13 14 15 15 16 16 17 17 17 17 17 17 17 17 17 17 17 17 17 17 18 18 18 19 20 20 21 21 21 21 21 21 22 22 22 23 23 23 23 23 23 23
5 5 5 5 6 6 6 5 5 5 6 7 7 8 8 8 8 8 9 9 10 10 11 13 12 12 13 13 13 14 14 15 15 16 16 17 17 18 18 18 18 18 18 18 18 18 18 18 18 18 19 20 20 20 21 21 21 21 22 22 22 22 22 22 22 22 23 23 23
6 6 6 6 6 6 6 6 6 6 7 8 8 8 8 8 8 9 9 10 11 12 13 14 13 13 14 14 14 13 13 14 15 16 16 17 17 18 18 18 18 18 18 18 18 18 19 19 19 18 18 19 19 20 20 20 20 21 21 22 22 22 22 22 22 22 21 22 23
6 6 6 6 5 5 5 6 6 7 7 8 8 9 9 9 10 10 11 11 12 13 14 14 14 14 14 15 15 14 14 14 16 17 17 18 18 18 18 18 18 18 18 18 18 19 19 19 19 19 19 19 19 19 19 20 20 20 20 21 21 22 22 22 22 22 21 21 22
6 6 5 5 5 5 6 6 7 7 8 8 9 9 10 11 11 11 12 12 13 13 14 15 15 15 15 16 16 16 15 14 16 17 18 17 18 18 18 18 18 18 18 18 18 19 19 19 19 19 19 19 19 20 20 20 20 20 20 20 20 20 21 21 21 21 22 22 22
6 5 4 4 5 5 6 6 7 8 8 9 10 10 11 11 11 12 13 13 14 14 15 15 15 16 16 16 17 17 16 14 15 16 17 17 18 18 18 18 18 18 18 18 18 18 19 19 19 18 18 19 19 19 19 19 19 20 20 19 19 19 20 21 21 21 22 22 22
5 4 4 4 5 5 6 7 7 8 9 9 10 10 11 11 12 12 13 13 14 14 15 15 16 16 16 17 17 17 16 15 15 16 16 16 17 17 17 17 17 18 18 18 18 18 18 18 18 18 18 18 18 18 19 18 19 19 20 20 20 20 21 21 21 21 21 21 21
4 4 4 4 5 6 6 7 8 9 9 10 10 11 11 12 12 13 13 14 14 14 15 15 15 16 17 17 17 17 17 16 16 17 17 17 17 17 17 17 17 18 18 17 17 17 16 16 16 16 16 16 17 17 18 18 18 18 19 20 20 21 21 21 21 21 21 21 21
3 4 4 4 5 6 7 8 8 9 10 10 11 11 12 12 12 13 13 14 14 14 14 14 14 15 16 17 17 17 18 18 18 18 18 17 17 17 17 16 17 17 16 15 14 14 14 13 13 13 14 15 15 16 16 16 17 17 18 19 19 20 20 20 21 21 21 22 21
3 4 4 5 6 7 7 8 9 10 10 11 11 12 12 12 12 12 13 14 14 15 15 15 15 15 15 16 16 17 17 17 18 18 18 18 17 17 16 15 15 14 14 13 15 16 16 15 13 13 13 13 14 15 15 16 17 17 17 18 18 19 19 20 20 21 21 22 21
4 4 5 5 6 7 8 9 10 11 11 12 12 13 13 13 12 13 13 14 15 15 15 16 15 15 14 15 16 16 16 16 16 17 17 17 17 17 17 15 14 13 12 13 16 17 18 18 18 17 15 14 14 15 15 15 16 17 18 18 18 18 19 19 20 20 21 20 21
4 5 5 6 7 8 9 10 10 11 12 12 13 13 13 13 13 13 14 15 15 15 15 15 15 14 14 14 15 16 16 15 15 16 17 17 18 18 18 16 14 12 12 14 17 18 19 20 21 21 19 17 16 15 15 15 16 17 17 18 18 18 19 20 20 20 20 20 20
4 5 6 7 8 9 10 10 11 12 12 13 13 14 14 14 15 15 15 16 16 15 14 14 13 12 11 12 13 15 15 16 16 16 16 17 18 19 18 16 14 13 14 17 19 20 21 22 22 23 22 20 17 16 16 16 16 16 16 16 17 18 19 19 19 19 19 20 20
5 5 6 7 8 9 10 11 12 12 13 13 14 14 15 15 15 16 16 16 16 15 14 12 11 11 11 12 14 15 16 17 16 16 16 17 18 18 18 17 16 16 17 20 21 22 23 23 24 24 24 23 18 14 13 13 14 14 15 14 15 16 17 17 17 17 17 18 18
5 5 6 8 9 10 10 11 12 13 13 13 14 15 15 15 16 16 16 17 17 16 14 13 12 13 14 15 15 15 16 16 15 16 16 17 18 18 18 17 16 17 18 21 22 23 24 24 24 25 25 25 21 17 14 13 14 14 14 14 16 17 18 18 19 19 18 17 17
5 6 7 8 9 10 11 12 13 13 13 13 14 15 16 16 16 16 17 16 16 16 15 15 16 16 17 17 16 16 17 16 16 16 16 17 18 18 18 18 18 18 19 22 23 24 24 25 25 25 25 25 21 17 14 14 15 15 15 15 17 18 19 19 19 19 19 20 19
6 7 7 9 10 11 12 13 13 14 14 15 15 16 16 16 16 16 16 16 16 16 17 17 17 18 18 18 17 17 17 17 17 17 17 17 18 18 18 18 18 19 20 22 23 24 24 25 25 25 25 25 21 18 16 16 16 16 17 19 20 21 21 19 18 19 21 21 20
6 7 8 9 10 11 12 13 14 14 15 15 15 16 16 16 16 16 16 16 15 16 17 17 17 17 17 17 17 18 18 17 17 17 18 18 18 19 19 18 17 18 19 22 23 24 24 25 25 26 26 26 22 19 17 17 16 15 16 18 19 21 22 22 21 21 21 22 21
6 8 9 10 11 12 13 14 14 14 15 15 15 16 16 16 17 17 16 15 15 15 15 16 16 16 16 16 17 17 17 16 16 17 18 18 18 19 19 17 15 16 19 22 24 25 25 26 26 26 26 26 20 17 16 18 16 16 17 18 19 20 21 22 22 22 22 22 21
7 8 9 10 11 12 13 14 14 14 15 15 15 16 16 16 17 17 16 15 15 15 15 15 15 16 16 16 16 17 17 17 17 17 17 18 18 19 19 19 18 19 22 24 25 26 26 26 26 27 26 23 18 15 15 17 17 18 18 20 20 21 22 22 22 21 22 22 21
7 8 8 10 11 13 14 14 14 15 15 15 15 16 16 16 16 16 15 15 15 16 16 16 16 16 16 16 16 16 16 17 18 18 17 17 18 19 20 20 20 22 23 25 25 26 26 26 26 26 25 21 16 14 14 15 15 16 18 19 20 21 21 21 21 21 21 20 21
8 8 8 10 12 13 14 14 15 15 15 15 15 16 16 16 16 15 15 14 15 16 16 16 16 16 17 17 16 16 17 17 18 18 18 18 18 19 20 20 21 22 23 24 25 26 26 26 27 26 24 19 15 14 13 13 13 14 16 18 19 20 20 19 19 20 20 20 21
8 8 9 10 12 13 14 14 15 15 16 16 16 16 16 16 15 15 14 14 14 15 16 16 17 17 17 17 17 17 18 18 18 18 18 18 18 18 19 21 21 21 22 23 25 26 26 27 27 26 24 18 16 14 13 12 12 13 14 15 16 17 17 16 15 16 18 20 21
9 10 10 11 12 13 14 14 15 15 15 16 16 16 16 15 14 14 13 13 14 15 16 16 17 17 17 17 16 17 18 19 19 18 18 18 18 19 20 20 21 21 22 23 25 26 27 27 27 27 25 20 16 14 12 11 12 13 14 14 14 15 16 15 14 14 15 19 22
9 10 11 12 12 13 14 14 15 15 15 15 15 15 15 15 14 14 14 13 14 15 15 16 17 17 17 16 16 17 18 19 18 18 18 18 19 20 20 20 20 21 22 23 25 26 26 27 27 27 25 19 15 13 11 11 12 13 14 13 13 13 13 13 13 13 14 16 19
9 10 11 11 12 12 13 14 14 14 14 14 15 15 14 14 14 14 14 13 14 15 14 14 16 17 17 16 16 16 18 19 19 19 19 19 19 19 19 19 20 21 21 22 24 25 26 26 27 27 25 19 15 13 11 11 12 13 14 14 13 12 12 12 12 13 13 15 16
Wind_Direction
139 138 138 137 140 144 143 137 150 176 200 207 218 229 248 267 278 284 287 288 288 289 289 288 288 288 288 289 290 291 291 290 289 288 286 285 284 284 284 283 282 281 279 279 278 277 276 275 274 272 270 268 267 265 264 262 263 263 263 262 263 263 262 261 260 259 258 257 257
141 140 140 145 154 158 159 162 172 186 197 200 213 237 263 277 284 288 290 290 291 291 290 288 287 287 288 290 292 292 292 290 289 288 286 284 283 282 281 279 278 276 276 276 276 276 276 275 274 273 271 269 267 265 263 260 258 258 259 258 259 259 259 259 258 257 257 257 256
147 149 155 162 168 170 172 176 183 190 197 199 223 267 287 290 292 292 292 292 291 290 289 287 288 290 291 293 293 292 290 289 288 287 285 284 283 281 280 278 277 276 274 273 272 271 271 272 272 271 270 269 267 266 265 262 259 258 257 256 256 255 255 256 255 255 255 254 253
156 159 164 167 168 168 169 174 184 193 204 247 296 297 295 295 294 292 291 291 290 287 286 287 290 291 292 291 289 288 286 285 285 285 284 283 282 281 281 280 278 277 275 273 272 271 270 270 270 269 267 267 266 265 264 263 261 260 259 257 256 255 254 254 253 253 252 252 252
162 163 163 161 160 159 158 162 167 179 319 330 305 295 291 289 287 286 287 288 287 287 288 291 292 290 288 285 284 284 283 283 283 283 282 282 281 280 279 278 276 276 275 274 273 272 271 270 270 268 266 266 265 263 263 263 262 261 260 259 257 255 255 254 252 251 251 251 250
162 159 156 153 154 152 148 143 124 59 332 303 292 291 291 291 291 291 291 291 291 291 291 291 288 284 281 280 280 281 282 283 282 281 280 280 279 277 276 275 274 274 273 272 271 270 269 268 267 265 264 263 263 262 262 262 262 261 260 259 258 256 255 254 253 251 250 250 249
160 158 157 155 152 146 135 119 105 324 290 282 287 291 294 296 295 294 294 293 292 290 289 286 282 279 278 278 280 281 282 282 281 279 278 277 275 273 272 271 271 270 269 269 269 268 266 264 264 262 262 261 262 261 261 260 261 261 261 260 259 258 258 257 256 254 253 252 251
159 158 155 148 139 127 114 102 325 290 289 288 292 293 294 294 294 293 292 290 287 286 285 283 281 281 280 280 280 280 279 279 278 277 275 273 272 272 271 270 270 269 268 268 267 266 265 264 262 262 262 261 261 261 261 261 262 263 263 263 263 261 260 258 257 255 254 253 251
159 153 145 133 123 116 113 148 281 288 290 290 289 290 290 291 290 288 286 284 284 284 284 282 281 281 280 279 278 277 276 275 274 273 272 271 271 271 271 271 270 269 268 267 267 267 266 264 262 261 261 261 262 263 264 264 265 265 265 265 265 264 262 261 259 257 255 253 251
156 146 135 125 123 128 159 248 274 282 285 285 284 284 283 282 280 278 278 278 281 280 279 278 278 278 277 276 275 274 272 270 269 268 268 268 267 268 268 268 268 268 268 268 268 268 267 266 264 263 263 263 263 264 265 265 265 265 264 264 265 265 265 264 262 260 258 255 252
146 136 130 130 138 163 239 271 279 280 280 279 279 279 277 274 272 272 274 277 276 275 275 275 275 275 274 273 271 270 268 267 266 266 267 267 267 268 268 268 269 269 269 269 269 269 268 267 265 265 265 264 265 265 265 265 264 263 262 262 263 264 264 264 263 262 261 259 256
139 136 140 149 166 217 264 277 279 277 276 274 274 274 273 272 273 274 275 275 274 274 274 274 274 273 272 271 270 269 268 267 268 268 269 270 270 270 270 270 270 270 270 270 269 268 267 265 265 265 266 265 266 266 266 265 264 263 263 262 262 262 262 262 262 261 261 260 259
143 149 161 175 202 242 262 270 271 270 269 270 270 271 272 273 275 275 275 274 274 275 275 275 274 273 272 271 271 271 271 271 271 271 272 272 272 272 272 271 271 270 270 269 268 266 265 264 264 265 265 266 265 265 265 265 265 265 264 264 262 262 261 260 260 260 260 260 260
157 169 185 203 228 246 256 261 263 265 267 269 270 272 274 276 276 276 276 276 277 278 278 278 276 274 273 273 274 274 275 275 274 274 273 272 272 271 271 270 270 269 269 267 266 264 264 264 264 265 265 266 266 265 265 265 265 265 265 265 264 263 262 261 260 260 259 259 259
177 190 204 219 233 244 252 257 262 266 269 271 274 276 277 278 277 277 277 278 279 280 280 279 278 277 276 276 276 276 276 275 274 273 273 272 271 271 270 270 269 268 268 267 265 264 263 264 265 265 266 266 267 266 266 265 265 264 264 264 264 264 264 263 263 262 261 260 259
195 205 215 225 234 243 250 257 263 269 273 276 279 280 280 279 279 277 277 277 278 278 279 278 279 279 279 278 277 276 276 275 274 273 273 273 272 271 271 270 270 270 269 269 268 266 265 265 265 265 266 267 267 267 267 266 265 265 265 265 265 265 265 265 264 263 262 261 261
208 216 223 231 238 245 253 261 268 275 279 282 283 282 281 280 280 279 277 277 278 278 279 279 279 280 280 279 278 277 276 276 275 274 274 274 274 274 274 273 273 273 273 272 271 270 269 268 267 267 267 267 268 268 268 268 268 267 267 266 266 265 265 265 264 264 263 263 262
217 222 228 233 241 250 259 269 276 281 284 285 284 283 282 281 281 281 280 279 279 279 279 279 279 278 278 279 278 277 276 276 276 276 276 276 276 276 276 276 276 275 275 274 273 272 271 271 270 269 269 269 269 269 269 270 270 269 269 268 267 267 266 265 265 264 263 262 262
221 225 231 238 249 260 271 280 284 286 286 286 284 283 282 282 282 282 281 280 279 279 280 280 279 278 277 277 277 277 276 276 276 276 276 276 277 277 277 277 277 276 276 275 274 273 273 272 272 271 271 271 271 271 270 270 270 269 268 268 267 267 266 265 265 264 263 263 262
225 231 238 249 263 276 284 288 288 288 288 286 284 283 283 282 282 281 281 281 281 281 281 280 280 279 278 278 278 278 277 276 276 276 277 277 277 278 278 278 278 278 277 276 275 274 274 274 274 274 274 274 273 272 271 270 269 268 267 266 265 265 264 264 264 263 263 263 262
231 239 252 267 279 287 291 292 291 290 288 286 284 283 283 282 281 281 281 282 282 282 282 281 281 281 281 280 280 279 278 277 278 278 278 279 278 278 279 279 279 278 277 276 275 275 276 276 277 277 277 276 274 273 271 270 269 267 266 265 264 263 263 262 262 262 262 261 261
239 252 269 283 290 294 295 294 293 290 288 286 284 283 282 282 281 282 282 283 283 283 283 283 283 283 282 282 282 282 282 281 280 280 279 279 278 278 278 278 278 277 277 276 276 276 277 278 278 278 277 276 274 272 271 270 269 268 267 265 264 263 262 261 260 260 259 259 259
251 269 283 291 296 297 297 296 294 291 289 286 285 284 283 282 282 283 283 284 284 284 284 284 284 284 284 284 284 284 283 282 280 279 278 277 277 277 277 277 276 276 276 276 276 277 279 280 280 279 278 277 275 274 272 271 270 269 268 267 265 264 262 261 259 258 257 257 256
264 281 292 297 300 299 298 297 294 292 290 289 288 287 286 285 284 285 285 285 285 285 284 284 284 284 285 285 285 283 282 281 280 279 278 278 277 277 277 277 277 277 277 277 279 281 283 284 283 282 280 278 276 275 274 273 272 271 270 269 268 267 265 263 261 258 256 255 254
276 289 297 300 301 300 299 297 295 293 293 292 292 291 290 289 289 288 288 287 286 285 285 284 284 284 284 284 283 282 280 279 279 279 279 279 278 278 278 278 278 278 278 279 281 282 282 280 279 279 278 277 276 275 274 273 272 272 272 271 271 270 269 267 265 262 259 256 254
288 297 301 303 302 300 298 297 296 296 295 295 295 295 295 294 293 292 291 289 288 288 288 287 286 285 283 282 281 280 279 279 279 279 280 281 281 280 280 279 279 278 279 279 280 280 279 277 274 273 273 274 274 274 273 272 271 270 270 270 269 269 268 267 265 263 261 259 256
296 302 305 305 303 301 299 299 299 298 298 299 299 298 298 298 297 295 294 292 291 290 290 288 286 284 282 279 279 279 279 280 281 281 282 282 282 281 280 279 279 279 279 280 280 279 278 276 273 272 270 270 271 271 271 271 270 270 269 268 267 266 266 266 265 264 263 261 259
300 304 305 304 301 300 300 301 301 301 301 302 302 301 300 300 298 297 295 294 293 292 290 287 285 284 282 280 280 281 282 283 283 282 281 281 280 280 280 281 281 282 282 283 282 280 278 276 274 272 271 269 269 269 269 270 270 269 268 267 266 265 264 264 264 264 263 262 260
301 303 303 301 301 301 301 303 303 304 304 304 303 302 301 299 298 297 296 296 294 292 290 288 288 286 285 285 286 286 286 284 283 282 281 281 281 281 283 284 285 285 285 284 283 281 279 277 275 273 272 270 269 268 267 267 267 267 266 265 264 263 263 262 263 263 263 262 261
300 301 300 300 301 302 303 305 305 305 305 303 302 302 301 299 298 297 296 295 294 293 292 292 291 289 288 287 287 286 285 284 283 283 282 282 283 284 286 287 287 286 285 284 282 280 279 277 276 275 273 272 270 268 266 265 265 265 265 265 264 264 263 263 263 263 263 263 262
299 300 301 302 303 304 306 307 307 306 304 303 302 302 301 299 298 297 296 295 295 294 293 292 290 289 288 287 287 287 286 286 286 286 286 286 287 288 289 289 288 286 284 283 281 280 279 278 277 276 275 273 271 268 266 265 264 264 264 263 263 264 264 264 263 262 262 262 262
301 303 304 304 305 307 308 308 307 305 304 303 302 301 300 299 298 297 297 297 296 295 294 292 291 291 290 290 290 289 289 289 289 289 289 289 290 291 290 289 287 285 283 282 281 281 280 280 279 278 276 275 273 270 267 265 264 263 263 263 263 263 263 262 261 261 260 260 260
304 305 305 306 308 308 308 307 306 305 304 302 301 300 300 299 299 298 297 296 295 294 294 294 294 293 293 293 292 292 291 291 290 290 290 291 291 291 289 287 285 284 283 283 282 282 281 281 280 279 278 277 275 272 268 266 264 263 262 261 261 261 261 260 260 259 258 258 258
301 303 305 307 309 308 307 306 305 304 303 301 300 300 300 300 299 298 296 295 295 295 295 295 294 294 293 293 293 292 292 291 291 292 292 292 291 290 289 287 285 284 284 284 283 283 282 282 281 281 280 279 277 274 270 267 264 262 261 260 260 260 260 259 259 258 257 257 256
301 304 307 309 307 306 305 304 304 303 302 301 301 300 300 298 297 297 297 297 297 297 296 295 294 294 293 292 292 292 292 292 292 293 293 292 291 290 288 287 285 284 284 284 284 284 284 284 284 284 283 282 279 275 271 268 266 263 261 260 260 259 259 258 258 257 256 255 254
304 307 307 304 303 302 303 303 304 303 303 302 301 299 298 297 297 298 299 300 299 298 297 297 296 295 294 294 294 293 293 294 294 294 293 292 290 289 288 287 286 286 286 287 287 287 287 287 286 286 285 284 280 275 271 269 266 264 262 261 260 259 258 258 257 256 255 254 252
305 304 302 298 299 301 303 304 304 304 303 301 300 299 298 298 299 300 301 302 301 300 299 298 297 296 296 296 296 296 296 295 295 294 292 291 289 288 288 287 288 288 289 289 289 289 289 288 288 287 286 284 280 277 273 271 268 266 264 263 262 261 260 258 257 255 254 252 251
304 303 301 298 300 303 305 305 304 303 302 301 300 300 300 301 301 302 303 303 301 300 299 298 297 297 297 298 298 297 296 295 293 292 291 289 288 288 288 289 289 290 290 290 290 290 289 288 288 287 287 284 282 279 275 272 269 267 265 264 264 262 260 259 257 255 254 252 250
306 304 303 303 303 304 305 304 303 302 301 301 300 301 302 302 302 303 303 302 300 298 298 297 297 297 298 299 298 297 295 293 292 291 290 289 289 289 289 289 289 290 290 290 290 289 289 288 287 287 287 285 283 280 276 272 270 268 266 265 265 263 261 259 257 255 254 253 251
305 305 304 304 304 304 304 303 302 301 301 300 301 301 302 302 302 302 301 300 298 297 297 296 297 298 299 300 298 296 294 293 292 292 291 291 290 290 289 289 289 289 289 289 289 288 288 287 287 287 287 286 284 281 277 274 271 269 268 266 265 264 262 260 257 255 254 254 251
303 303 304 304 304 304 303 302 302 301 301 300 301 301 302 302 301 301 300 299 299 298 297 297 297 299 299 299 297 295 294 294 294 294 293 293 292 291 290 288 288 288 288 288 288 287 287 287 287 287 288 287 285 283 279 275 273 272 270 269 267 265 263 261 259 256 255 254 253